Volver al catálogo

STARLINK-2111

ActivoComunicacionesVLEO
NORAD 47390·PAYLOAD·🇺🇸 United States

Lanzado Jan 20, 2021 desde Cape Canaveral Space Force Station

Loading…

Próximos Pases (próximas 24 horas)

TLE

ActualizadoSource: CelesTrak SupGP

Época: Sep 15, 2026, 02:48 UTC

1 47390C 21005AT  26258.11715278 -.00016372  00000+0 -52656-3 0  2581
2 47390  53.1578 264.7803 0001235  91.2026 292.3835 15.31704838    18

Sigue STARLINK-2111 en tiempo real con AllMySat

Download on the App Store